Terminal Aerodrome Forecast
Issued by NWS

Home | Current Version | Previous Version | Graphics & Text | Print | Product List | Glossary On
Versions: 1 2 3 4 5 6 7 8 9 10 11 12 13
809
FTUS45 KGGW 091138
TAFSDY
TAF
KSDY 091138Z 0912/1012 29005KT P6SM BKN090
     FM091600 30009KT P6SM OVC050
     FM091900 30006KT P6SM OVC035
     FM100500 24004KT P6SM BKN150
      AMD LTD TO CLD VIS AND WIND=

USA.gov is the U.S. government's official web portal to all federal, state and local government web resources and services.